QPF
0.03 0.04 0.04 0.03 0.02 0.01 0.00 0.00 0.00 0.00 0.00 0.00 0.01 0.01 0.01 0.00 0.00 0.00 0.01 0.01 0.02 0.05 0.05 0.05 0.06 0.05 0.06 0.07 0.06 0.06 0.05 0.05 0.04 0.02 0.01 0.01 0.01 0.02 0.02 0.02 0.01 0.01 0.02
0.06 0.04 0.03 0.03 0.03 0.02 0.01 0.00 0.00 0.00 0.00 0.00 0.00 0.00 0.00 0.00 0.00 0.01 0.01 0.01 0.01 0.04 0.05 0.06 0.06 0.06 0.07 0.09 0.08 0.06 0.06 0.05 0.04 0.03 0.02 0.02 0.02 0.01 0.01 0.01 0.01 0.01 0.02
0.10 0.07 0.04 0.03 0.03 0.03 0.01 0.01 0.01 0.00 0.00 0.00 0.00 0.00 0.00 0.00 0.00 0.00 0.01 0.01 0.01 0.04 0.06 0.07 0.07 0.08 0.08 0.09 0.09 0.07 0.07 0.05 0.03 0.02 0.02 0.02 0.02 0.02 0.02 0.02 0.01 0.02 0.02
0.12 0.11 0.08 0.05 0.04 0.03 0.02 0.01 0.01 0.01 0.01 0.01 0.01 0.01 0.00 0.00 0.00 0.01 0.01 0.01 0.01 0.02 0.04 0.06 0.06 0.09 0.08 0.07 0.07 0.06 0.04 0.03 0.03 0.02 0.02 0.02 0.02 0.02 0.02 0.02 0.02 0.01 0.02
0.10 0.11 0.11 0.11 0.08 0.06 0.04 0.02 0.01 0.01 0.01 0.01 0.00 0.00 0.00 0.00 0.00 0.01 0.01 0.01 0.01 0.01 0.01 0.02 0.04 0.05 0.06 0.05 0.04 0.04 0.03 0.02 0.02 0.02 0.02 0.02 0.02 0.01 0.02 0.02 0.02 0.02 0.02
0.07 0.09 0.10 0.11 0.11 0.10 0.07 0.05 0.03 0.02 0.01 0.01 0.01 0.01 0.00 0.00 0.00 0.01 0.01 0.01 0.01 0.01 0.01 0.01 0.01 0.02 0.03 0.04 0.03 0.04 0.04 0.04 0.02 0.02 0.02 0.02 0.02 0.02 0.02 0.02 0.02 0.02 0.02
0.06 0.07 0.09 0.10 0.09 0.08 0.08 0.07 0.06 0.04 0.02 0.01 0.01 0.01 0.01 0.01 0.01 0.01 0.01 0.01 0.01 0.01 0.01 0.01 0.01 0.01 0.02 0.02 0.02 0.02 0.03 0.04 0.03 0.02 0.02 0.02 0.02 0.02 0.02 0.02 0.02 0.02 0.02
0.06 0.06 0.07 0.10 0.11 0.09 0.06 0.07 0.07 0.06 0.04 0.02 0.01 0.01 0.02 0.02 0.02 0.01 0.01 0.01 0.01 0.01 0.01 0.01 0.01 0.01 0.01 0.02 0.02 0.01 0.01 0.03 0.04 0.04 0.03 0.03 0.03 0.02 0.02 0.02 0.02 0.03 0.04
0.06 0.06 0.07 0.07 0.09 0.10 0.08 0.07 0.06 0.05 0.04 0.02 0.01 0.01 0.01 0.02 0.02 0.02 0.01 0.01 0.01 0.02 0.01 0.01 0.01 0.01 0.01 0.00 0.01 0.01 0.01 0.01 0.02 0.04 0.05 0.04 0.03 0.03 0.03 0.02 0.02 0.04 0.05
0.04 0.05 0.05 0.06 0.07 0.10 0.10 0.08 0.07 0.06 0.05 0.04 0.02 0.01 0.00 0.00 0.01 0.02 0.02 0.02 0.02 0.02 0.01 0.01 0.01 0.01 0.01 0.00 0.00 0.00 0.00 0.01 0.02 0.03 0.05 0.05 0.04 0.03 0.03 0.03 0.03 0.03 0.04
0.02 0.03 0.05 0.06 0.06 0.08 0.09 0.09 0.07 0.06 0.06 0.05 0.04 0.02 0.01 0.01 0.00 0.00 0.01 0.02 0.03 0.02 0.02 0.02 0.01 0.01 0.01 0.01 0.00 0.00 0.00 0.01 0.01 0.02 0.03 0.05 0.05 0.04 0.03 0.03 0.03 0.03 0.03
0.02 0.02 0.03 0.05 0.05 0.07 0.09 0.10 0.08 0.05 0.04 0.04 0.04 0.03 0.02 0.01 0.01 0.00 0.00 0.01 0.03 0.03 0.03 0.02 0.02 0.01 0.01 0.01 0.00 0.00 0.00 0.01 0.01 0.02 0.02 0.03 0.04 0.04 0.03 0.02 0.02 0.02 0.02
0.03 0.02 0.02 0.04 0.05 0.05 0.07 0.09 0.10 0.08 0.05 0.04 0.03 0.03 0.02 0.01 0.01 0.00 0.00 0.01 0.02 0.03 0.04 0.03 0.04 0.03 0.01 0.01 0.01 0.00 0.00 0.00 0.01 0.01 0.02 0.02 0.02 0.03 0.03 0.02 0.02 0.02 0.02
0.03 0.02 0.02 0.03 0.04 0.04 0.05 0.07 0.09 0.10 0.08 0.06 0.04 0.03 0.03 0.02 0.01 0.01 0.01 0.01 0.02 0.03 0.03 0.04 0.04 0.04 0.03 0.02 0.01 0.01 0.00 0.00 0.00 0.01 0.02 0.02 0.01 0.01 0.02 0.02 0.02 0.02 0.02
0.03 0.02 0.02 0.03 0.04 0.04 0.04 0.05 0.07 0.09 0.09 0.08 0.06 0.04 0.04 0.03 0.02 0.02 0.01 0.02 0.03 0.03 0.03 0.03 0.03 0.03 0.04 0.03 0.02 0.01 0.00 0.00 0.00 0.00 0.01 0.01 0.01 0.01 0.02 0.02 0.02 0.01 0.02
0.04 0.03 0.02 0.03 0.03 0.04 0.04 0.05 0.05 0.06 0.08 0.08 0.08 0.06 0.05 0.04 0.03 0.02 0.02 0.03 0.04 0.04 0.03 0.03 0.03 0.03 0.02 0.03 0.03 0.02 0.01 0.00 0.00 0.00 0.00 0.01 0.01 0.01 0.01 0.02 0.02 0.02 0.02
0.06 0.04 0.02 0.03 0.03 0.04 0.04 0.05 0.05 0.05 0.06 0.07 0.07 0.07 0.06 0.05 0.04 0.03 0.02 0.02 0.03 0.04 0.03 0.03 0.03 0.03 0.02 0.02 0.03 0.02 0.02 0.01 0.01 0.01 0.00 0.00 0.01 0.01 0.01 0.01 0.01 0.02 0.02
0.06 0.05 0.03 0.03 0.03 0.03 0.04 0.05 0.05 0.06 0.06 0.07 0.06 0.06 0.06 0.05 0.05 0.04 0.03 0.02 0.03 0.03 0.03 0.03 0.03 0.04 0.03 0.02 0.02 0.02 0.02 0.02 0.01 0.02 0.01 0.01 0.01 0.01 0.01 0.01 0.02 0.02 0.02
0.05 0.04 0.04 0.03 0.03 0.03 0.04 0.04 0.05 0.05 0.06 0.06 0.06 0.06 0.05 0.05 0.04 0.05 0.06 0.04 0.04 0.04 0.04 0.04 0.04 0.04 0.04 0.03 0.03 0.02 0.03 0.02 0.02 0.01 0.01 0.02 0.02 0.01 0.01 0.01 0.02 0.02 0.03
0.07 0.05 0.03 0.03 0.03 0.03 0.04 0.04 0.04 0.05 0.05 0.06 0.06 0.06 0.06 0.06 0.04 0.04 0.06 0.06 0.06 0.05 0.06 0.05 0.05 0.04 0.04 0.04 0.03 0.03 0.03 0.02 0.01 0.02 0.01 0.02 0.05 0.04 0.02 0.01 0.02 0.02 0.03
0.10 0.06 0.04 0.03 0.03 0.04 0.04 0.04 0.04 0.04 0.04 0.04 0.06 0.06 0.06 0.06 0.06 0.05 0.06 0.06 0.07 0.07 0.07 0.06 0.06 0.05 0.04 0.04 0.04 0.03 0.02 0.01 0.01 0.02 0.02 0.02 0.07 0.07 0.04 0.03 0.03 0.02 0.03
0.12 0.10 0.06 0.04 0.04 0.04 0.05 0.05 0.04 0.04 0.04 0.04 0.04 0.05 0.06 0.06 0.06 0.06 0.07 0.08 0.08 0.07 0.07 0.07 0.06 0.06 0.04 0.03 0.03 0.03 0.02 0.01 0.01 0.01 0.02 0.03 0.05 0.08 0.06 0.04 0.04 0.03 0.03
0.09 0.11 0.09 0.06 0.04 0.04 0.05 0.04 0.05 0.05 0.05 0.05 0.05 0.05 0.05 0.05 0.05 0.05 0.05 0.07 0.08 0.08 0.07 0.05 0.05 0.05 0.04 0.02 0.02 0.02 0.02 0.01 0.01 0.01 0.02 0.05 0.05 0.06 0.06 0.03 0.04 0.04 0.03
0.06 0.09 0.10 0.09 0.06 0.05 0.04 0.04 0.04 0.04 0.04 0.05 0.05 0.05 0.05 0.05 0.05 0.04 0.04 0.05 0.06 0.06 0.06 0.05 0.04 0.04 0.04 0.03 0.03 0.03 0.02 0.02 0.01 0.01 0.02 0.03 0.04 0.04 0.04 0.03 0.03 0.04 0.04
0.05 0.07 0.09 0.09 0.08 0.07 0.06 0.05 0.04 0.04 0.04 0.05 0.05 0.06 0.05 0.04 0.05 0.06 0.06 0.06 0.06 0.05 0.05 0.05 0.04 0.04 0.05 0.05 0.04 0.05 0.05 0.05 0.04 0.03 0.02 0.02 0.03 0.04 0.03 0.03 0.03 0.04 0.04
0.03 0.05 0.06 0.08 0.08 0.08 0.07 0.07 0.06 0.05 0.05 0.04 0.05 0.06 0.07 0.06 0.06 0.05 0.05 0.06 0.06 0.05 0.05 0.06 0.06 0.05 0.04 0.05 0.05 0.04 0.04 0.04 0.04 0.03 0.03 0.02 0.03 0.04 0.05 0.04 0.03 0.03 0.04
MSLP
1030.62 1030.23 1029.79 1029.32 1028.87 1028.43 1028.02 1027.63 1027.25 1026.86 1026.46 1026.05 1025.64 1025.25 1024.89 1024.58 1024.34 1024.14 1023.99 1023.87 1023.76 1023.64 1023.51 1023.38 1023.24 1023.10 1022.98 1022.87 1022.78 1022.69 1022.60 1022.50 1022.38 1022.25 1022.11 1021.96 1021.81 1021.65 1021.47 1021.27 1021.05 1020.81 1020.56
1031.20 1030.75 1030.26 1029.76 1029.29 1028.86 1028.47 1028.11 1027.75 1027.38 1026.98 1026.57 1026.15 1025.75 1025.39 1025.10 1024.88 1024.73 1024.64 1024.57 1024.51 1024.43 1024.33 1024.19 1024.04 1023.87 1023.71 1023.56 1023.42 1023.30 1023.18 1023.07 1022.96 1022.84 1022.71 1022.59 1022.45 1022.30 1022.13 1021.93 1021.70 1021.44 1021.17
1031.73 1031.22 1030.69 1030.17 1029.70 1029.29 1028.93 1028.60 1028.27 1027.91 1027.52 1027.10 1026.67 1026.26 1025.90 1025.62 1025.42 1025.31 1025.26 1025.25 1025.23 1025.19 1025.11 1024.99 1024.83 1024.64 1024.45 1024.26 1024.09 1023.93 1023.78 1023.64 1023.50 1023.37 1023.23 1023.09 1022.95 1022.79 1022.62 1022.43 1022.20 1021.96 1021.69
1032.30 1031.73 1031.16 1030.64 1030.18 1029.79 1029.46 1029.16 1028.85 1028.50 1028.10 1027.67 1027.21 1026.78 1026.40 1026.12 1025.93 1025.84 1025.83 1025.85 1025.87 1025.87 1025.82 1025.71 1025.55 1025.37 1025.16 1024.95 1024.75 1024.56 1024.37 1024.19 1024.01 1023.83 1023.66 1023.48 1023.30 1023.12 1022.94 1022.75 1022.54 1022.31 1022.08
1032.94 1032.33 1031.74 1031.20 1030.76 1030.39 1030.09 1029.81 1029.51 1029.16 1028.74 1028.27 1027.78 1027.31 1026.91 1026.60 1026.41 1026.33 1026.33 1026.38 1026.43 1026.45 1026.43 1026.34 1026.20 1026.02 1025.82 1025.60 1025.39 1025.17 1024.95 1024.73 1024.50 1024.25 1024.01 1023.77 1023.54 1023.32 1023.12 1022.92 1022.73 1022.54 1022.35
1033.66 1033.02 1032.41 1031.88 1031.45 1031.10 1030.82 1030.55 1030.24 1029.87 1029.42 1028.91 1028.38 1027.87 1027.43 1027.10 1026.89 1026.80 1026.81 1026.86 1026.93 1026.97 1026.96 1026.89 1026.77 1026.60 1026.41 1026.20 1025.98 1025.75 1025.51 1025.24 1024.95 1024.65 1024.33 1024.02 1023.73 1023.46 1023.23 1023.02 1022.84 1022.68 1022.53
1034.41 1033.75 1033.14 1032.62 1032.20 1031.87 1031.60 1031.33 1031.01 1030.61 1030.13 1029.58 1029.00 1028.46 1027.99 1027.63 1027.41 1027.31 1027.31 1027.36 1027.42 1027.46 1027.45 1027.39 1027.27 1027.12 1026.94 1026.74 1026.52 1026.29 1026.02 1025.73 1025.39 1025.04 1024.66 1024.29 1023.94 1023.63 1023.36 1023.15 1022.97 1022.83 1022.71
1035.12 1034.46 1033.85 1033.35 1032.95 1032.64 1032.37 1032.09 1031.76 1031.34 1030.83 1030.26 1029.67 1029.11 1028.62 1028.26 1028.02 1027.91 1027.89 1027.92 1027.97 1027.99 1027.96 1027.89 1027.76 1027.60 1027.42 1027.22 1027.01 1026.77 1026.50 1026.18 1025.83 1025.44 1025.03 1024.62 1024.23 1023.89 1023.60 1023.37 1023.20 1023.06 1022.96
1035.73 1035.06 1034.48 1033.99 1033.61 1033.31 1033.05 1032.77 1032.44 1032.02 1031.51 1030.94 1030.36 1029.81 1029.34 1028.99 1028.76 1028.64 1028.60 1028.61 1028.62 1028.60 1028.54 1028.42 1028.27 1028.08 1027.88 1027.67 1027.45 1027.20 1026.93 1026.62 1026.26 1025.86 1025.44 1025.02 1024.62 1024.27 1023.98 1023.74 1023.57 1023.43 1023.32
1036.16 1035.52 1034.96 1034.50 1034.13 1033.85 1033.59 1033.32 1033.00 1032.60 1032.12 1031.59 1031.06 1030.55 1030.13 1029.81 1029.60 1029.49 1029.44 1029.42 1029.38 1029.31 1029.19 1029.02 1028.81 1028.58 1028.34 1028.10 1027.85 1027.59 1027.32 1027.01 1026.66 1026.28 1025.88 1025.48 1025.10 1024.76 1024.48 1024.25 1024.07 1023.93 1023.80
1036.42 1035.80 1035.27 1034.83 1034.48 1034.21 1033.96 1033.71 1033.41 1033.05 1032.63 1032.17 1031.71 1031.28 1030.93 1030.67 1030.49 1030.39 1030.34 1030.29 1030.21 1030.08 1029.90 1029.66 1029.39 1029.09 1028.80 1028.51 1028.23 1027.95 1027.67 1027.36 1027.04 1026.69 1026.32 1025.96 1025.62 1025.31 1025.04 1024.83 1024.65 1024.50 1024.35
1036.52 1035.93 1035.42 1035.00 1034.66 1034.40 1034.16 1033.93 1033.66 1033.35 1033.00 1032.63 1032.26 1031.93 1031.66 1031.46 1031.33 1031.26 1031.20 1031.12 1031.01 1030.83 1030.59 1030.30 1029.96 1029.60 1029.24 1028.90 1028.58 1028.27 1027.97 1027.67 1027.36 1027.04 1026.71 1026.40 1026.10 1025.83 1025.60 1025.39 1025.22 1025.06 1024.90
1036.51 1035.95 1035.46 1035.04 1034.71 1034.44 1034.20 1033.98 1033.75 1033.49 1033.21 1032.93 1032.66 1032.42 1032.23 1032.10 1032.01 1031.95 1031.90 1031.81 1031.67 1031.46 1031.18 1030.85 1030.46 1030.06 1029.66 1029.27 1028.90 1028.56 1028.23 1027.92 1027.62 1027.32 1027.03 1026.75 1026.50 1026.27 1026.06 1025.88 1025.71 1025.54 1025.37
1036.44 1035.90 1035.42 1035.00 1034.65 1034.36 1034.11 1033.89 1033.68 1033.47 1033.25 1033.04 1032.85 1032.69 1032.57 1032.49 1032.43 1032.39 1032.34 1032.24 1032.10 1031.88 1031.59 1031.25 1030.85 1030.43 1030.00 1029.58 1029.18 1028.80 1028.45 1028.12 1027.82 1027.53 1027.26 1027.01 1026.78 1026.58 1026.39 1026.22 1026.06 1025.90 1025.72
1036.35 1035.84 1035.36 1034.92 1034.54 1034.21 1033.93 1033.70 1033.49 1033.30 1033.12 1032.97 1032.83 1032.72 1032.64 1032.58 1032.54 1032.50 1032.45 1032.36 1032.22 1032.02 1031.76 1031.44 1031.07 1030.66 1030.24 1029.82 1029.41 1029.01 1028.63 1028.29 1027.97 1027.67 1027.41 1027.17 1026.96 1026.77 1026.60 1026.43 1026.27 1026.11 1025.93
1036.29 1035.78 1035.29 1034.82 1034.39 1034.02 1033.70 1033.43 1033.20 1033.02 1032.86 1032.73 1032.62 1032.53 1032.46 1032.40 1032.35 1032.30 1032.24 1032.16 1032.04 1031.88 1031.67 1031.40 1031.10 1030.74 1030.37 1029.97 1029.57 1029.17 1028.79 1028.43 1028.09 1027.79 1027.52 1027.28 1027.07 1026.88 1026.71 1026.54 1026.37 1026.20 1026.02
1036.23 1035.74 1035.22 1034.72 1034.24 1033.81 1033.43 1033.12 1032.87 1032.68 1032.52 1032.39 1032.27 1032.17 1032.08 1032.00 1031.92 1031.84 1031.77 1031.69 1031.60 1031.48 1031.34 1031.15 1030.93 1030.66 1030.35 1030.02 1029.65 1029.28 1028.91 1028.55 1028.22 1027.91 1027.64 1027.39 1027.17 1026.97 1026.78 1026.60 1026.42 1026.23 1026.05
1036.19 1035.69 1035.15 1034.61 1034.08 1033.60 1033.18 1032.83 1032.55 1032.33 1032.15 1032.01 1031.88 1031.75 1031.62 1031.49 1031.37 1031.25 1031.15 1031.06 1030.99 1030.92 1030.84 1030.75 1030.62 1030.44 1030.23 1029.96 1029.66 1029.34 1029.00 1028.67 1028.35 1028.05 1027.78 1027.53 1027.30 1027.09 1026.88 1026.67 1026.46 1026.25 1026.04
1036.12 1035.62 1035.06 1034.49 1033.92 1033.40 1032.94 1032.56 1032.25 1032.02 1031.83 1031.66 1031.51 1031.34 1031.17 1030.98 1030.80 1030.64 1030.50 1030.40 1030.33 1030.30 1030.27 1030.25 1030.21 1030.13 1030.00 1029.82 1029.60 1029.34 1029.06 1028.77 1028.49 1028.22 1027.96 1027.72 1027.49 1027.26 1027.02 1026.78 1026.53 1026.29 1026.05
1036.00 1035.51 1034.95 1034.35 1033.76 1033.22 1032.74 1032.34 1032.02 1031.78 1031.58 1031.40 1031.21 1031.01 1030.79 1030.56 1030.32 1030.10 1029.92 1029.79 1029.72 1029.70 1029.71 1029.74 1029.77 1029.76 1029.72 1029.62 1029.47 1029.29 1029.07 1028.85 1028.61 1028.39 1028.16 1027.94 1027.71 1027.47 1027.22 1026.94 1026.65 1026.35 1026.07
1035.83 1035.35 1034.79 1034.20 1033.61 1033.06 1032.57 1032.17 1031.85 1031.61 1031.40 1031.21 1031.01 1030.78 1030.53 1030.25 1029.96 1029.70 1029.48 1029.31 1029.22 1029.19 1029.22 1029.28 1029.34 1029.39 1029.41 1029.38 1029.30 1029.18 1029.04 1028.88 1028.71 1028.53 1028.35 1028.16 1027.94 1027.70 1027.42 1027.11 1026.78 1026.43 1026.10
1035.60 1035.15 1034.61 1034.03 1033.46 1032.91 1032.44 1032.05 1031.74 1031.49 1031.29 1031.10 1030.88 1030.64 1030.36 1030.05 1029.73 1029.43 1029.17 1028.98 1028.86 1028.82 1028.84 1028.90 1028.98 1029.06 1029.11 1029.12 1029.10 1029.04 1028.96 1028.86 1028.75 1028.63 1028.50 1028.34 1028.14 1027.90 1027.61 1027.27 1026.90 1026.51 1026.12
1035.34 1034.92 1034.41 1033.86 1033.30 1032.78 1032.32 1031.94 1031.63 1031.39 1031.19 1030.99 1030.78 1030.53 1030.23 1029.91 1029.58 1029.26 1028.99 1028.78 1028.64 1028.58 1028.58 1028.63 1028.71 1028.79 1028.85 1028.88 1028.89 1028.87 1028.84 1028.79 1028.73 1028.66 1028.57 1028.44 1028.26 1028.03 1027.73 1027.38 1026.98 1026.56 1026.14
1035.05 1034.66 1034.19 1033.67 1033.14 1032.63 1032.19 1031.81 1031.51 1031.26 1031.05 1030.85 1030.63 1030.38 1030.09 1029.77 1029.44 1029.13 1028.86 1028.65 1028.51 1028.44 1028.43 1028.47 1028.53 1028.59 1028.65 1028.69 1028.70 1028.71 1028.70 1028.68 1028.66 1028.62 1028.56 1028.46 1028.30 1028.07 1027.78 1027.42 1027.01 1026.58 1026.14
1034.73 1034.37 1033.93 1033.44 1032.94 1032.45 1032.01 1031.63 1031.31 1031.05 1030.83 1030.62 1030.39 1030.14 1029.87 1029.57 1029.27 1028.99 1028.74 1028.55 1028.43 1028.36 1028.35 1028.38 1028.43 1028.48 1028.52 1028.55 1028.56 1028.57 1028.56 1028.56 1028.55 1028.53 1028.48 1028.40 1028.26 1028.05 1027.77 1027.42 1027.02 1026.59 1026.16
1034.36 1034.03 1033.62 1033.15 1032.66 1032.18 1031.74 1031.35 1031.02 1030.74 1030.49 1030.26 1030.04 1029.80 1029.54 1029.28 1029.02 1028.79 1028.59 1028.44 1028.35 1028.31 1028.31 1028.34 1028.39 1028.43 1028.46 1028.47 1028.47 1028.46 1028.45 1028.44 1028.43 1028.41 1028.37 1028.29 1028.17 1027.97 1027.71 1027.39 1027.01 1026.60 1026.19
Thickness
5595 5596 5596 5597 5598 5599 5599 5599 5600 5600 5601 5602 5603 5604 5605 5607 5609 5610 5612 5614 5616 5618 5619 5620 5621 5623 5624 5625 5625 5626 5626 5627 5627 5628 5629 5629 5629 5630 5630 5630 5630 5630 5631
5585 5585 5586 5587 5588 5589 5590 5589 5590 5591 5591 5592 5593 5594 5595 5597 5599 5600 5602 5604 5606 5608 5609 5611 5612 5613 5615 5616 5616 5617 5618 5618 5618 5619 5619 5620 5620 5621 5622 5622 5622 5622 5622
5576 5575 5576 5577 5578 5579 5580 5579 5579 5580 5581 5582 5583 5584 5585 5587 5588 5590 5592 5593 5595 5597 5599 5601 5602 5604 5605 5606 5607 5607 5608 5609 5609 5610 5610 5610 5611 5612 5613 5613 5613 5614 5614
5565 5565 5566 5566 5567 5569 5569 5569 5569 5569 5570 5570 5571 5573 5574 5576 5577 5579 5581 5582 5584 5586 5588 5590 5591 5593 5594 5595 5596 5598 5598 5599 5599 5600 5600 5601 5602 5603 5603 5604 5604 5605 5605
5553 5554 5555 5555 5556 5557 5558 5558 5558 5559 5559 5559 5560 5561 5562 5564 5566 5568 5570 5571 5573 5575 5576 5578 5580 5581 5583 5584 5586 5587 5588 5589 5589 5590 5591 5591 5592 5593 5593 5594 5595 5595 5596
5541 5542 5543 5544 5545 5546 5547 5547 5547 5547 5548 5548 5549 5548 5549 5551 5554 5556 5558 5560 5561 5563 5565 5566 5568 5569 5571 5573 5574 5576 5577 5578 5579 5580 5580 5581 5581 5582 5583 5583 5584 5585 5586
5529 5531 5532 5533 5534 5535 5536 5536 5536 5536 5535 5536 5536 5534 5536 5538 5541 5544 5546 5548 5550 5551 5553 5555 5556 5558 5559 5560 5562 5564 5565 5567 5568 5569 5570 5570 5571 5572 5573 5573 5573 5574 5575
5518 5519 5521 5522 5522 5524 5525 5525 5525 5524 5523 5525 5525 5523 5523 5525 5528 5531 5533 5535 5537 5539 5540 5542 5544 5546 5547 5549 5550 5551 5553 5554 5556 5557 5559 5559 5560 5561 5562 5562 5563 5564 5564
5506 5508 5510 5511 5511 5513 5514 5515 5516 5517 5515 5513 5515 5515 5514 5515 5513 5516 5519 5522 5524 5526 5528 5530 5531 5533 5535 5536 5538 5539 5541 5542 5544 5545 5547 5548 5549 5550 5551 5552 5552 5553 5553
5495 5496 5498 5499 5500 5502 5504 5505 5506 5506 5506 5505 5504 5505 5506 5507 5504 5504 5505 5508 5510 5512 5514 5516 5518 5521 5523 5524 5525 5527 5529 5530 5532 5533 5535 5536 5537 5539 5539 5540 5540 5541 5541
5482 5484 5486 5488 5489 5491 5492 5494 5495 5496 5496 5496 5495 5494 5493 5493 5494 5494 5494 5494 5496 5498 5501 5503 5506 5508 5510 5511 5513 5515 5517 5518 5519 5521 5522 5524 5525 5526 5527 5528 5528 5528 5528
5470 5473 5474 5476 5477 5479 5480 5482 5484 5484 5485 5486 5485 5485 5485 5484 5484 5484 5483 5482 5482 5485 5487 5490 5493 5495 5497 5499 5501 5502 5504 5505 5506 5508 5509 5511 5512 5513 5514 5515 5515 5515 5515
5458 5461 5463 5464 5465 5467 5469 5470 5471 5473 5474 5474 5475 5475 5475 5476 5476 5475 5474 5471 5470 5471 5473 5476 5480 5482 5484 5486 5488 5489 5490 5492 5493 5494 5496 5498 5499 5500 5500 5501 5501 5501 5502
5446 5449 5451 5453 5455 5456 5457 5458 5459 5461 5463 5463 5464 5464 5464 5465 5465 5465 5464 5460 5458 5457 5459 5464 5467 5469 5471 5473 5474 5476 5477 5479 5480 5481 5483 5484 5485 5486 5486 5487 5488 5488 5488
5432 5436 5438 5441 5443 5444 5445 5446 5448 5449 5451 5452 5453 5453 5453 5454 5453 5453 5453 5453 5451 5449 5451 5453 5454 5458 5459 5460 5462 5463 5465 5466 5468 5469 5469 5470 5471 5472 5473 5473 5474 5474 5474
5419 5422 5426 5428 5429 5431 5433 5435 5436 5438 5440 5441 5442 5442 5442 5443 5442 5441 5441 5442 5442 5443 5441 5444 5443 5445 5446 5448 5449 5451 5452 5454 5455 5456 5457 5457 5458 5459 5460 5460 5460 5460 5459
5406 5409 5413 5415 5417 5418 5421 5423 5425 5427 5429 5430 5431 5431 5432 5432 5431 5431 5431 5430 5431 5431 5431 5431 5431 5431 5432 5434 5436 5438 5439 5440 5442 5443 5444 5444 5445 5446 5446 5446 5446 5446 5446
5393 5396 5399 5402 5404 5406 5408 5410 5413 5415 5417 5419 5420 5421 5421 5421 5421 5420 5420 5420 5421 5421 5420 5419 5418 5418 5419 5421 5422 5424 5425 5427 5429 5430 5431 5432 5432 5432 5433 5432 5432 5432 5432
5380 5382 5385 5388 5391 5393 5395 5398 5400 5402 5405 5408 5409 5410 5410 5410 5410 5410 5410 5410 5410 5410 5410 5409 5408 5406 5405 5406 5408 5410 5411 5413 5415 5417 5418 5418 5418 5419 5419 5419 5418 5418 5418
5366 5369 5372 5375 5377 5379 5381 5384 5387 5389 5392 5394 5397 5398 5399 5400 5401 5400 5400 5400 5399 5398 5397 5397 5396 5394 5393 5393 5394 5396 5397 5400 5402 5403 5404 5404 5404 5404 5404 5405 5405 5404 5403
5352 5355 5358 5361 5363 5365 5368 5370 5373 5376 5378 5381 5384 5386 5388 5390 5391 5391 5391 5390 5389 5388 5387 5386 5385 5384 5383 5382 5384 5385 5385 5387 5388 5389 5390 5391 5392 5392 5390 5390 5390 5390 5390
5338 5341 5344 5347 5349 5352 5355 5357 5360 5362 5365 5367 5371 5374 5376 5378 5379 5381 5382 5382 5381 5379 5378 5377 5376 5375 5376 5375 5373 5372 5372 5373 5375 5377 5376 5377 5377 5378 5378 5377 5377 5377 5378
5324 5327 5330 5333 5336 5339 5342 5344 5347 5349 5351 5353 5357 5361 5364 5366 5368 5369 5370 5371 5371 5371 5372 5370 5368 5367 5367 5367 5363 5361 5361 5362 5364 5364 5362 5364 5364 5365 5365 5365 5365 5365 5365
5310 5313 5316 5319 5322 5326 5329 5332 5334 5335 5337 5340 5343 5347 5351 5354 5356 5357 5358 5358 5358 5359 5359 5359 5360 5360 5358 5356 5354 5353 5351 5349 5348 5348 5348 5349 5351 5352 5353 5353 5353 5352 5352
5297 5300 5303 5306 5309 5313 5316 5319 5320 5321 5324 5327 5330 5333 5337 5341 5344 5345 5345 5346 5346 5346 5345 5346 5347 5346 5345 5344 5342 5338 5336 5334 5335 5336 5335 5335 5337 5338 5339 5341 5341 5340 5340
5284 5287 5290 5293 5296 5299 5303 5306 5308 5309 5312 5315 5317 5320 5324 5328 5330 5331 5332 5333 5334 5334 5333 5333 5333 5332 5331 5330 5329 5328 5326 5323 5323 5323 5323 5322 5323 5323 5325 5329 5328 5328 5327